Карточка аэропорта UWWW

Внимание!
Информация на этой странице в стадии наполнения.
Если вы не увидели какой-то информации, или заметили неточность - пожалуйста сообщите нам!
Спасибо!
Команда RU-STAFF
Название аэропортаКурумоч
Название аэропорта (англ.)Kurumoch
Превышение476 ft. (145.1 m.)
Координаты53°30.102', 50°9.3000000000001'
Высота перехода4000 ft
Эшелон переходаQNH>=1013hPa:FL50; QNH<1013hPa:FL60; QNH<977hPa:FL70
Коды ответчика4140-4177
Зона ОрВДСамара РПИ (UWWW)
Данные METARUWWW 181300Z 36008MPS 9999 BKN020 13/08 Q1015 R33/CLRD63 NOSIG RMK QFE751/1001
Проноз погоды (TAF)UWWW 181050Z 1812/1912 01007G14MPS 9999 BKN030 TX14/1812Z TN05/1901Z TEMPO 1812/1815 3000 -SHRA BKN010CB BECMG 1815/1816 02003G09MPS
NOTAMshow/hide NOTAM
AWOS   TABLE

Информация о ВПП

ВПП Длина ВПП (м.) Покрытие Курс ВПП Частота ILS
052553Асфальтобетон49110.5
232553Асфальтобетон229109.7
153003Железобетон148111.9
333003Железобетон328111.1

Диспетчерские позиции

Позывной Наименование органа УВД Частота
UWWW_GNDСамара-Руление119.000
UWWW_TWRСамара-Старт118.200
UWWW_R_APPСамара-Круг128.000
UWWW_APPСамара-Подход124.600
UWWWFM1Машина сопровождения119.000



Спутниковое изображение